Time,TemperatureF,DewpointF,PressureIn,WindDirection,WindDirectionDegrees,WindSpeedMPH,WindSpeedGustMPH,Humidity,HourlyPrecipIn,Conditions,Clouds,dailyrainin,SoftwareType,DateUTC
2013-03-23 00:00:00,30.1,26.1,29.94,SW,217,7.1,12.7,85,0.00,-SN,,0.00,WeatherDisplay:10.37,2013-03-23 04:00:00,
2013-03-23 00:01:00,30.1,26.1,29.94,SW,232,8.7,11.5,85,0.00,-SN,,0.00,WeatherDisplay:10.37,2013-03-23 04:01:00,
2013-03-23 00:06:00,30.0,26.0,29.94,SW,232,9.7,13.0,85,0.00,-SN,,0.00,WeatherDisplay:10.37,2013-03-23 04:06:00,
2013-03-23 00:11:00,30.0,26.0,29.93,SW,222,9.3,13.8,85,0.00,-SN,,0.00,WeatherDisplay:10.37,2013-03-23 04:11:00,
2013-03-23 00:16:00,29.9,26.2,29.93,WSW,246,10.8,14.0,86,0.00,-SN,,0.00,WeatherDisplay:10.37,2013-03-23 04:16:00,
2013-03-23 00:21:00,29.8,26.1,29.93,WSW,240,11.3,15.0,86,0.00,-SN,,0.00,WeatherDisplay:10.37,2013-03-23 04:21:00,
2013-03-23 00:27:00,29.6,25.9,29.93,SW,230,8.0,10.4,86,0.00,-SN,,0.00,WeatherDisplay:10.37,2013-03-23 04:27:00,
2013-03-23 00:32:00,29.4,26.0,29.93,WSW,250,9.2,10.0,87,0.00,-SN,,0.00,WeatherDisplay:10.37,2013-03-23 04:32:00,
2013-03-23 00:37:00,29.1,25.7,29.93,SW,235,7.8,10.4,87,0.00,-SN,,0.00,WeatherDisplay:10.37,2013-03-23 04:37:00,
2013-03-23 00:42:00,28.9,25.5,29.93,WSW,258,8.3,10.4,87,0.00,-SN,,0.00,WeatherDisplay:10.37,2013-03-23 04:42:00,
2013-03-23 00:48:00,28.9,25.5,29.93,WSW,249,6.8,9.2,87,0.00,-SN,,0.00,WeatherDisplay:10.37,2013-03-23 04:48:00,
2013-03-23 00:53:00,28.9,25.5,29.93,WSW,258,8.2,10.4,87,0.00,-SN,,0.00,WeatherDisplay:10.37,2013-03-23 04:53:00,
2013-03-23 00:58:00,28.8,25.4,29.93,SW,232,8.2,9.0,87,0.00,-SN,,0.00,WeatherDisplay:10.37,2013-03-23 04:58:00,
2013-03-23 01:04:00,28.7,25.6,29.93,West,266,7.2,9.2,88,0.00,-SN,,0.00,WeatherDisplay:10.37,2013-03-23 05:04:00,
2013-03-23 01:08:00,28.8,25.7,29.94,WSW,255,7.6,9.2,88,0.00,-SN,,0.00,WeatherDisplay:10.37,2013-03-23 05:08:00,
2013-03-23 01:14:00,28.9,25.5,29.94,WSW,249,6.2,9.2,87,0.00,-SN,,0.00,WeatherDisplay:10.37,2013-03-23 05:14:00,
2013-03-23 01:19:00,28.9,25.5,29.94,WSW,244,5.5,7.0,87,0.00,-SN,,0.00,WeatherDisplay:10.37,2013-03-23 05:19:00,
2013-03-23 01:24:00,29.0,25.6,29.94,WSW,242,6.8,11.5,87,0.00,-SN,,0.00,WeatherDisplay:10.37,2013-03-23 05:24:00,
2013-03-23 01:30:00,29.0,25.3,29.94,WSW,253,6.7,10.4,86,0.00,-SN,,0.00,WeatherDisplay:10.37,2013-03-23 05:30:00,
2013-03-23 01:35:00,29.0,25.3,29.94,WSW,239,7.8,11.5,86,0.00,-SN,,0.00,WeatherDisplay:10.37,2013-03-23 05:35:00,
2013-03-23 01:40:00,28.9,25.2,29.94,WSW,250,8.1,11.5,86,0.00,-SN,,0.00,WeatherDisplay:10.37,2013-03-23 05:40:00,
2013-03-23 01:45:00,28.7,25.0,29.94,WSW,239,6.2,8.1,86,0.00,-SN,,0.00,WeatherDisplay:10.37,2013-03-23 05:45:00,
2013-03-23 01:50:00,28.6,25.2,29.94,West,260,9.6,9.6,87,0.00,-SN,,0.00,WeatherDisplay:10.37,2013-03-23 05:50:00,
2013-03-23 01:55:00,28.8,25.4,29.94,WSW,250,10.1,11.5,87,0.00,-SN,,0.00,WeatherDisplay:10.37,2013-03-23 05:55:00,
2013-03-23 02:00:00,28.9,25.2,29.94,SW,214,9.2,11.5,86,0.00,-SN,,0.00,WeatherDisplay:10.37,2013-03-23 06:00:00,
2013-03-23 02:06:00,28.7,25.0,29.94,WSW,249,7.8,12.0,86,0.00,-SN,,0.00,WeatherDisplay:10.37,2013-03-23 06:06:00,
2013-03-23 02:11:00,28.7,25.3,29.94,WSW,256,10.0,15.0,87,0.00,-SN,,0.00,WeatherDisplay:10.37,2013-03-23 06:11:00,
2013-03-23 02:16:00,28.6,25.2,29.94,West,260,9.3,13.8,87,0.00,-SN,,0.00,WeatherDisplay:10.37,2013-03-23 06:16:00,
2013-03-23 02:21:00,28.7,25.0,29.93,WSW,256,8.0,12.7,86,0.00,-SN,,0.00,WeatherDisplay:10.37,2013-03-23 06:21:00,
2013-03-23 02:27:00,28.6,24.9,29.94,WSW,238,10.7,12.7,86,0.00,-SN,,0.00,WeatherDisplay:10.37,2013-03-23 06:27:00,
2013-03-23 02:32:00,28.6,24.9,29.94,WSW,257,9.8,12.7,86,0.00,-SN,,0.00,WeatherDisplay:10.37,2013-03-23 06:32:00,
2013-03-23 02:37:00,28.7,25.0,29.94,SW,231,10.0,12.0,86,0.00,-SN,,0.00,WeatherDisplay:10.37,2013-03-23 06:37:00,
2013-03-23 02:42:00,28.6,24.9,29.93,SSW,210,8.2,11.5,86,0.00,-SN,,0.00,WeatherDisplay:10.37,2013-03-23 06:42:00,
2013-03-23 02:47:00,28.5,24.8,29.93,WSW,241,7.9,11.5,86,0.00,-SN,,0.00,WeatherDisplay:10.37,2013-03-23 06:47:00,
2013-03-23 02:53:00,28.3,24.6,29.94,WSW,245,9.5,12.7,86,0.00,-SN,,0.00,WeatherDisplay:10.37,2013-03-23 06:53:00,
2013-03-23 02:58:00,28.3,24.6,29.94,WSW,256,10.0,12.7,86,0.00,-SN,,0.00,WeatherDisplay:10.37,2013-03-23 06:58:00,
2013-03-23 03:03:00,28.4,24.7,29.94,SW,233,8.3,10.4,86,0.00,-SN,,0.00,WeatherDisplay:10.37,2013-03-23 07:03:00,
2013-03-23 03:08:00,28.4,24.7,29.94,WSW,250,8.2,11.5,86,0.00,-SN,,0.00,WeatherDisplay:10.37,2013-03-23 07:08:00,
2013-03-23 03:13:00,28.5,24.8,29.93,SW,231,8.5,9.2,86,0.00,-SN,,0.00,WeatherDisplay:10.37,2013-03-23 07:13:00,
2013-03-23 03:18:00,28.5,24.8,29.94,West,267,8.6,11.5,86,0.00,-SN,,0.00,WeatherDisplay:10.37,2013-03-23 07:18:00,
2013-03-23 03:23:00,28.5,24.8,29.93,WSW,246,8.9,13.8,86,0.00,-SN,,0.00,WeatherDisplay:10.37,2013-03-23 07:23:00,
2013-03-23 03:28:00,28.5,24.6,29.94,WSW,240,9.1,11.5,85,0.00,-SN,,0.00,WeatherDisplay:10.37,2013-03-23 07:28:00,
2013-03-23 03:33:00,28.4,24.5,29.93,SW,235,9.9,11.5,85,0.00,-SN,,0.00,WeatherDisplay:10.37,2013-03-23 07:33:00,
2013-03-23 03:38:00,28.3,24.6,29.93,WSW,238,8.8,12.7,86,0.00,-SN,,0.00,WeatherDisplay:10.37,2013-03-23 07:38:00,
2013-03-23 03:43:00,28.3,24.6,29.93,WSW,249,8.9,11.0,86,0.00,-SN,,0.00,WeatherDisplay:10.37,2013-03-23 07:43:00,
2013-03-23 03:48:00,28.2,24.6,29.93,SW,229,10.1,11.5,86,0.00,BKN,,0.00,WeatherDisplay:10.37,2013-03-23 07:48:00,
2013-03-23 03:53:00,28.1,24.5,29.93,WSW,238,9.7,12.0,86,0.00,BKN,,0.00,WeatherDisplay:10.37,2013-03-23 07:53:00,
2013-03-23 03:59:00,28.0,24.4,29.92,West,259,8.2,11.5,86,0.00,BKN,,0.00,WeatherDisplay:10.37,2013-03-23 07:59:00,
2013-03-23 04:04:00,27.8,24.2,29.92,WSW,248,6.7,10.4,86,0.00,BKN,,0.00,WeatherDisplay:10.37,2013-03-23 08:04:00,
2013-03-23 04:09:00,27.8,24.2,29.92,WSW,248,6.5,9.2,86,0.00,BKN,,0.00,WeatherDisplay:10.37,2013-03-23 08:09:00,
2013-03-23 04:14:00,27.7,24.1,29.92,WSW,240,7.4,9.2,86,0.00,BKN,,0.00,WeatherDisplay:10.37,2013-03-23 08:14:00,
2013-03-23 04:19:00,27.5,23.9,29.92,WNW,293,4.4,6.0,86,0.00,BKN,,0.00,WeatherDisplay:10.37,2013-03-23 08:19:00,
2013-03-23 04:24:00,27.4,23.8,29.92,WSW,250,5.3,8.1,86,0.00,BKN,,0.00,WeatherDisplay:10.37,2013-03-23 08:24:00,
2013-03-23 04:29:00,27.4,24.0,29.92,WSW,246,4.4,5.8,87,0.00,BKN,,0.00,WeatherDisplay:10.37,2013-03-23 08:29:00,
2013-03-23 04:34:00,27.4,24.0,29.92,WSW,246,3.6,5.0,87,0.00,BKN,,0.00,WeatherDisplay:10.37,2013-03-23 08:34:00,
2013-03-23 04:39:00,27.4,24.0,29.92,WSW,248,5.4,8.1,87,0.00,BKN,,0.00,WeatherDisplay:10.37,2013-03-23 08:39:00,
2013-03-23 04:44:00,27.2,23.6,29.92,SW,231,5.2,6.0,86,0.00,BKN,,0.00,WeatherDisplay:10.37,2013-03-23 08:44:00,
2013-03-23 04:50:00,26.8,23.4,29.93,SW,233,6.7,8.1,87,0.00,BKN,,0.00,WeatherDisplay:10.37,2013-03-23 08:50:00,
2013-03-23 04:55:00,26.7,23.4,29.92,WSW,250,5.3,9.2,87,0.00,BKN,,0.00,WeatherDisplay:10.37,2013-03-23 08:55:00,
2013-03-23 05:00:00,26.6,23.3,29.93,SW,235,6.3,7.0,87,0.00,BKN,,0.00,WeatherDisplay:10.37,2013-03-23 09:00:00,
2013-03-23 05:05:00,26.1,22.8,29.93,WSW,249,6.4,7.0,87,0.00,OVC,,0.00,WeatherDisplay:10.37,2013-03-23 09:05:00,
2013-03-23 05:10:00,25.9,22.6,29.93,WSW,253,5.4,6.9,87,0.00,OVC,,0.00,WeatherDisplay:10.37,2013-03-23 09:10:00,
2013-03-23 05:15:00,25.8,22.7,29.93,WSW,245,6.0,8.1,88,0.00,OVC,,0.00,WeatherDisplay:10.37,2013-03-23 09:15:00,
2013-03-23 05:20:00,25.9,22.8,29.93,WSW,257,5.4,6.9,88,0.00,OVC,,0.00,WeatherDisplay:10.37,2013-03-23 09:20:00,
2013-03-23 05:25:00,25.7,22.4,29.93,SW,231,5.6,6.9,87,0.00,OVC,,0.00,WeatherDisplay:10.37,2013-03-23 09:25:00,
2013-03-23 05:30:00,25.6,22.5,29.94,WSW,248,5.7,8.1,88,0.00,OVC,,0.00,WeatherDisplay:10.37,2013-03-23 09:30:00,
2013-03-23 05:35:00,25.9,23.1,29.93,WSW,255,5.1,6.9,89,0.00,OVC,,0.00,WeatherDisplay:10.37,2013-03-23 09:35:00,
2013-03-23 05:40:00,26.1,23.0,29.93,WSW,245,5.9,6.9,88,0.00,OVC,,0.00,WeatherDisplay:10.37,2013-03-23 09:40:00,
2013-03-23 05:45:00,26.1,23.0,29.94,WSW,245,6.4,8.1,88,0.00,OVC,,0.00,WeatherDisplay:10.37,2013-03-23 09:45:00,
2013-03-23 05:50:00,26.2,23.1,29.94,WSW,249,4.0,5.8,88,0.00,OVC,,0.00,WeatherDisplay:10.37,2013-03-23 09:50:00,
2013-03-23 05:55:00,26.2,23.1,29.94,SW,230,3.5,3.5,88,0.00,OVC,,0.00,WeatherDisplay:10.37,2013-03-23 09:55:00,
2013-03-23 06:00:00,26.3,23.5,29.94,SW,231,4.7,4.7,89,0.00,OVC,,0.00,WeatherDisplay:10.37,2013-03-23 10:00:00,
2013-03-23 06:05:00,26.5,23.7,29.94,WSW,240,5.3,5.8,89,0.00,BKN,,0.00,WeatherDisplay:10.37,2013-03-23 10:05:00,
2013-03-23 06:10:00,26.7,23.6,29.94,West,261,3.3,6.9,88,0.00,BKN,,0.00,WeatherDisplay:10.37,2013-03-23 10:10:00,
2013-03-23 06:15:00,26.9,23.8,29.94,West,263,3.9,5.8,88,0.00,BKN,,0.00,WeatherDisplay:10.37,2013-03-23 10:15:00,
2013-03-23 06:20:00,27.1,24.0,29.94,WSW,252,4.5,6.9,88,0.00,BKN,,0.00,WeatherDisplay:10.37,2013-03-23 10:20:00,
2013-03-23 06:25:00,27.3,24.2,29.94,WSW,250,6.3,6.9,88,0.00,BKN,,0.00,WeatherDisplay:10.37,2013-03-23 10:25:00,
2013-03-23 06:30:00,27.4,24.3,29.94,WSW,257,5.5,8.1,88,0.00,BKN,,0.00,WeatherDisplay:10.37,2013-03-23 10:30:00,
2013-03-23 06:35:00,27.5,24.4,29.94,WSW,252,4.8,5.8,88,0.00,BKN,,0.00,WeatherDisplay:10.37,2013-03-23 10:35:00,
2013-03-23 06:40:00,27.6,24.5,29.94,WSW,257,5.2,8.1,88,0.00,BKN,,0.00,WeatherDisplay:10.37,2013-03-23 10:40:00,
2013-03-23 06:45:00,27.5,24.4,29.95,WSW,243,6.4,8.1,88,0.00,BKN,,0.00,WeatherDisplay:10.37,2013-03-23 10:45:00,
2013-03-23 06:50:00,27.5,24.4,29.95,WSW,242,6.4,9.2,88,0.00,OVC,,0.00,WeatherDisplay:10.37,2013-03-23 10:50:00,
2013-03-23 06:55:00,27.6,24.5,29.95,WSW,244,4.5,5.8,88,0.00,OVC,,0.00,WeatherDisplay:10.37,2013-03-23 10:55:00,
2013-03-23 07:00:00,27.6,24.5,29.95,WSW,253,4.2,5.8,88,0.00,OVC,,0.00,WeatherDisplay:10.37,2013-03-23 11:00:00,
2013-03-23 07:05:00,27.7,24.6,29.95,WSW,239,3.5,4.6,88,0.00,-SN,,0.00,WeatherDisplay:10.37,2013-03-23 11:05:00,
2013-03-23 07:10:00,27.8,24.7,29.95,WNW,295,3.7,4.6,88,0.00,-SN,,0.00,WeatherDisplay:10.37,2013-03-23 11:10:00,
2013-03-23 07:15:00,27.9,24.8,29.95,West,269,3.4,4.6,88,0.00,-SN,,0.00,WeatherDisplay:10.37,2013-03-23 11:15:00,
2013-03-23 07:20:00,28.0,25.2,29.96,WSW,256,2.7,3.5,89,0.00,-SN,,0.00,WeatherDisplay:10.37,2013-03-23 11:20:00,
2013-03-23 07:25:00,28.3,25.5,29.95,West,260,2.0,3.5,89,0.00,-SN,,0.00,WeatherDisplay:10.37,2013-03-23 11:25:00,
2013-03-23 07:30:00,28.7,25.9,29.95,West,280,1.1,2.3,89,0.00,-SN,,0.00,WeatherDisplay:10.37,2013-03-23 11:30:00,
2013-03-23 07:35:00,29.0,25.9,29.95,West,264,2.8,4.6,88,0.00,-SN,,0.00,WeatherDisplay:10.37,2013-03-23 11:35:00,
2013-03-23 07:40:00,29.3,26.2,29.95,West,273,3.5,5.0,88,0.00,-SN,,0.00,WeatherDisplay:10.37,2013-03-23 11:40:00,
2013-03-23 07:45:00,29.6,26.2,29.95,NW,305,2.1,4.6,87,0.00,-SN,,0.00,WeatherDisplay:10.37,2013-03-23 11:45:00,
2013-03-23 07:50:00,29.8,26.4,29.96,West,266,2.5,3.5,87,0.00,-SN,,0.00,WeatherDisplay:10.37,2013-03-23 11:50:00,
2013-03-23 07:55:00,29.9,26.5,29.96,West,281,2.1,3.5,87,0.00,-SN,,0.00,WeatherDisplay:10.37,2013-03-23 11:55:00,
2013-03-23 08:00:00,30.1,26.4,29.96,WNW,291,4.2,8.1,86,0.00,BKN,,0.00,WeatherDisplay:10.37,2013-03-23 12:00:00,
2013-03-23 08:05:00,30.2,26.5,29.96,West,268,3.5,3.5,86,0.00,BKN,,0.00,WeatherDisplay:10.37,2013-03-23 12:05:00,
2013-03-23 08:10:00,30.4,26.7,29.96,NW,307,3.5,6.9,86,0.00,BKN,,0.00,WeatherDisplay:10.37,2013-03-23 12:10:00,
2013-03-23 08:15:00,30.4,26.7,29.96,West,269,1.6,3.5,86,0.00,BKN,,0.00,WeatherDisplay:10.37,2013-03-23 12:15:00,
2013-03-23 08:20:00,30.5,26.8,29.96,WNW,296,3.1,6.0,86,0.00,BKN,,0.00,WeatherDisplay:10.37,2013-03-23 12:20:00,
2013-03-23 08:26:00,30.5,26.8,29.96,WNW,298,2.1,4.6,86,0.00,BKN,,0.00,WeatherDisplay:10.37,2013-03-23 12:26:00,
2013-03-23 08:31:00,30.7,27.0,29.96,WNW,295,2.4,4.0,86,0.00,BKN,,0.00,WeatherDisplay:10.37,2013-03-23 12:31:00,
2013-03-23 08:36:00,30.8,26.8,29.96,WNW,286,5.0,8.1,85,0.00,BKN,,0.00,WeatherDisplay:10.37,2013-03-23 12:36:00,
2013-03-23 08:41:00,31.0,27.0,29.96,WSW,253,4.1,5.8,85,0.00,BKN,,0.00,WeatherDisplay:10.37,2013-03-23 12:41:00,
2013-03-23 08:46:00,31.0,27.0,29.96,WSW,240,3.0,3.5,85,0.00,BKN,,0.00,WeatherDisplay:10.37,2013-03-23 12:46:00,
2013-03-23 08:51:00,31.2,27.2,29.96,NW,308,3.6,5.8,85,0.00,BKN,,0.00,WeatherDisplay:10.37,2013-03-23 12:51:00,
2013-03-23 08:56:00,31.3,27.3,29.96,West,281,2.4,5.8,85,0.00,BKN,,0.00,WeatherDisplay:10.37,2013-03-23 12:56:00,
2013-03-23 09:01:00,31.5,27.2,29.96,WNW,290,4.4,5.8,84,0.00,BKN,,0.00,WeatherDisplay:10.37,2013-03-23 13:01:00,
2013-03-23 09:06:00,31.6,27.3,29.96,NW,311,4.1,6.0,84,0.00,BKN,,0.00,WeatherDisplay:10.37,2013-03-23 13:06:00,
2013-03-23 09:11:00,31.7,27.1,29.96,WNW,283,3.8,5.8,83,0.00,BKN,,0.00,WeatherDisplay:10.37,2013-03-23 13:11:00,
2013-03-23 09:16:00,31.8,27.2,29.96,West,280,5.5,8.1,83,0.00,BKN,,0.00,WeatherDisplay:10.37,2013-03-23 13:16:00,
2013-03-23 09:21:00,31.8,27.2,29.96,WNW,297,3.1,4.6,83,0.00,BKN,,0.00,WeatherDisplay:10.37,2013-03-23 13:21:00,
2013-03-23 09:27:00,31.8,26.9,29.96,West,262,6.7,9.2,82,0.00,BKN,,0.00,WeatherDisplay:10.37,2013-03-23 13:27:00,
2013-03-23 09:32:00,32.0,27.1,29.96,WNW,293,4.6,8.0,82,0.00,BKN,,0.00,WeatherDisplay:10.37,2013-03-23 13:32:00,
2013-03-23 09:37:00,32.0,26.8,29.96,NW,315,6.9,11.5,81,0.00,BKN,,0.00,WeatherDisplay:10.37,2013-03-23 13:37:00,
2013-03-23 09:42:00,32.2,26.7,29.96,West,262,6.0,10.4,80,0.00,BKN,,0.00,WeatherDisplay:10.37,2013-03-23 13:42:00,
2013-03-23 09:47:00,32.4,26.3,29.96,NW,304,9.3,11.5,78,0.00,BKN,,0.00,WeatherDisplay:10.37,2013-03-23 13:47:00,
2013-03-23 09:52:00,32.3,25.9,29.96,NW,304,9.5,12.7,77,0.00,BKN,,0.00,WeatherDisplay:10.37,2013-03-23 13:52:00,
2013-03-23 09:57:00,32.3,25.9,29.96,WNW,288,7.7,11.5,77,0.00,BKN,,0.00,WeatherDisplay:10.37,2013-03-23 13:57:00,
2013-03-23 10:02:00,32.3,25.9,29.96,WNW,302,6.7,11.5,77,0.00,BKN,,0.00,WeatherDisplay:10.37,2013-03-23 14:02:00,
2013-03-23 10:07:00,32.5,25.8,29.96,NW,307,8.8,12.7,76,0.00,BKN,,0.00,WeatherDisplay:10.37,2013-03-23 14:07:00,
2013-03-23 10:12:00,32.6,25.9,29.97,WNW,293,9.0,11.5,76,0.00,BKN,,0.00,WeatherDisplay:10.37,2013-03-23 14:12:00,
2013-03-23 10:17:00,32.5,25.8,29.97,NW,304,8.8,15.0,76,0.00,BKN,,0.00,WeatherDisplay:10.37,2013-03-23 14:17:00,
2013-03-23 10:22:00,32.5,25.5,29.97,WNW,286,8.9,14.0,75,0.00,BKN,,0.00,WeatherDisplay:10.37,2013-03-23 14:22:00,
2013-03-23 10:27:00,33.1,26.0,29.97,NW,307,5.4,11.5,75,0.00,BKN,,0.00,WeatherDisplay:10.37,2013-03-23 14:27:00,
2013-03-23 10:32:00,33.2,25.8,29.97,West,270,7.8,11.5,74,0.00,BKN,,0.00,WeatherDisplay:10.37,2013-03-23 14:32:00,
2013-03-23 10:37:00,33.2,26.1,29.97,West,271,5.6,9.0,75,0.00,BKN,,0.00,WeatherDisplay:10.37,2013-03-23 14:37:00,
2013-03-23 10:42:00,32.8,25.4,29.98,WNW,295,11.1,16.1,74,0.00,BKN,,0.00,WeatherDisplay:10.37,2013-03-23 14:42:00,
2013-03-23 10:47:00,32.8,25.7,29.97,WNW,301,4.8,9.2,75,0.00,OVC,,0.00,WeatherDisplay:10.37,2013-03-23 14:47:00,
2013-03-23 10:53:00,33.3,25.2,29.97,WNW,295,7.9,13.8,72,0.00,OVC,,0.00,WeatherDisplay:10.37,2013-03-23 14:53:00,
2013-03-23 10:58:00,33.5,25.1,29.98,West,279,9.0,11.5,71,0.00,OVC,,0.00,WeatherDisplay:10.37,2013-03-23 14:58:00,
2013-03-23 11:03:00,33.7,25.6,29.98,West,281,6.6,11.5,72,0.00,BKN,,0.00,WeatherDisplay:10.37,2013-03-23 15:03:00,
2013-03-23 11:08:00,33.9,25.1,29.98,NW,304,10.4,16.1,70,0.00,BKN,,0.00,WeatherDisplay:10.37,2013-03-23 15:08:00,
2013-03-23 11:13:00,33.7,25.6,29.98,West,281,6.2,10.0,72,0.00,BKN,,0.00,WeatherDisplay:10.37,2013-03-23 15:13:00,
2013-03-23 11:18:00,33.8,25.7,29.98,WNW,298,8.2,12.7,72,0.00,BKN,,0.00,WeatherDisplay:10.37,2013-03-23 15:18:00,
2013-03-23 11:23:00,33.6,24.5,29.98,WNW,283,8.5,13.8,69,0.00,BKN,,0.00,WeatherDisplay:10.37,2013-03-23 15:23:00,
2013-03-23 11:28:00,33.9,25.1,29.98,NW,314,8.3,10.4,70,0.00,BKN,,0.00,WeatherDisplay:10.37,2013-03-23 15:28:00,
2013-03-23 11:33:00,34.3,25.2,29.98,NW,304,6.0,11.5,69,0.00,OVC,,0.00,WeatherDisplay:10.37,2013-03-23 15:33:00,
2013-03-23 11:38:00,34.3,24.8,29.98,SSW,212,9.7,16.1,68,0.00,OVC,,0.00,WeatherDisplay:10.37,2013-03-23 15:38:00,
2013-03-23 11:43:00,34.0,24.9,29.98,West,262,7.6,10.4,69,0.00,OVC,,0.00,WeatherDisplay:10.37,2013-03-23 15:43:00,
2013-03-23 11:48:00,34.1,25.0,29.98,WNW,297,9.1,12.7,69,0.00,OVC,,0.00,WeatherDisplay:10.37,2013-03-23 15:48:00,
2013-03-23 11:53:00,34.1,25.0,29.98,WNW,297,7.8,12.7,69,0.00,OVC,,0.00,WeatherDisplay:10.37,2013-03-23 15:53:00,
2013-03-23 11:58:00,34.2,25.1,29.98,West,273,7.5,9.2,69,0.00,OVC,,0.00,WeatherDisplay:10.37,2013-03-23 15:58:00,
2013-03-23 12:03:00,34.1,25.0,29.98,West,280,10.0,11.5,69,0.00,BKN,,0.00,WeatherDisplay:10.37,2013-03-23 16:03:00,
2013-03-23 12:08:00,34.4,25.3,29.98,West,278,9.3,12.7,69,0.00,BKN,,0.00,WeatherDisplay:10.37,2013-03-23 16:08:00,
2013-03-23 12:13:00,34.9,25.4,29.99,WNW,293,9.6,11.0,68,0.00,BKN,,0.00,WeatherDisplay:10.37,2013-03-23 16:13:00,
2013-03-23 12:18:00,34.5,25.0,29.99,WSW,250,9.6,16.1,68,0.00,BKN,,0.00,WeatherDisplay:10.37,2013-03-23 16:18:00,
2013-03-23 12:23:00,34.4,25.3,29.99,NW,314,9.0,11.5,69,0.00,BKN,,0.00,WeatherDisplay:10.37,2013-03-23 16:23:00,
2013-03-23 12:28:00,34.6,25.1,29.99,West,280,6.9,11.5,68,0.00,BKN,,0.00,WeatherDisplay:10.37,2013-03-23 16:28:00,
2013-03-23 12:33:00,34.9,25.8,29.99,NW,319,8.5,13.0,69,0.00,BKN,,0.00,WeatherDisplay:10.37,2013-03-23 16:33:00,
2013-03-23 12:38:00,34.7,25.2,29.99,WNW,285,6.6,10.4,68,0.00,BKN,,0.00,WeatherDisplay:10.37,2013-03-23 16:38:00,
2013-03-23 12:43:00,34.8,25.0,29.99,West,259,7.3,10.4,67,0.00,BKN,,0.00,WeatherDisplay:10.37,2013-03-23 16:43:00,
2013-03-23 12:48:00,34.8,24.2,29.99,West,260,11.8,16.1,65,0.00,BKN,,0.00,WeatherDisplay:10.37,2013-03-23 16:48:00,
2013-03-23 12:53:00,34.6,24.8,29.99,WNW,301,7.9,15.0,67,0.00,BKN,,0.00,WeatherDisplay:10.37,2013-03-23 16:53:00,
2013-03-23 12:58:00,34.6,24.8,29.99,NW,307,8.3,16.1,67,0.00,BKN,,0.00,WeatherDisplay:10.37,2013-03-23 16:58:00,
2013-03-23 13:03:00,34.9,25.4,29.99,West,268,4.9,9.2,68,0.00,BKN,,0.00,WeatherDisplay:10.37,2013-03-23 17:03:00,
2013-03-23 13:08:00,35.0,25.1,29.99,WSW,245,6.4,11.5,67,0.00,BKN,,0.00,WeatherDisplay:10.37,2013-03-23 17:08:00,
2013-03-23 13:13:00,34.9,25.0,29.99,WNW,283,8.4,8.4,67,0.00,BKN,,0.00,WeatherDisplay:10.37,2013-03-23 17:13:00,
2013-03-23 13:18:00,34.7,24.9,29.99,WSW,252,10.3,15.0,67,0.00,BKN,,0.00,WeatherDisplay:10.37,2013-03-23 17:18:00,
2013-03-23 13:23:00,34.6,25.1,29.99,NNW,329,5.7,12.0,68,0.00,BKN,,0.00,WeatherDisplay:10.37,2013-03-23 17:23:00,
2013-03-23 13:28:00,34.7,25.2,29.99,NNW,333,5.9,11.5,68,0.00,BKN,,0.00,WeatherDisplay:10.37,2013-03-23 17:28:00,
2013-03-23 13:33:00,34.7,25.2,29.99,WNW,302,9.0,11.5,68,0.00,BKN,,0.00,WeatherDisplay:10.37,2013-03-23 17:33:00,
2013-03-23 13:38:00,34.9,25.4,29.99,WNW,284,8.9,11.5,68,0.00,BKN,,0.00,WeatherDisplay:10.37,2013-03-23 17:38:00,
2013-03-23 13:43:00,34.9,25.8,29.99,WNW,291,8.4,11.5,69,0.00,BKN,,0.00,WeatherDisplay:10.37,2013-03-23 17:43:00,
2013-03-23 13:48:00,34.9,25.8,29.99,West,269,9.5,12.7,69,0.00,BKN,,0.00,WeatherDisplay:10.37,2013-03-23 17:48:00,
2013-03-23 13:53:00,35.4,26.2,29.98,NW,308,8.4,13.0,69,0.00,BKN,,0.00,WeatherDisplay:10.37,2013-03-23 17:53:00,
2013-03-23 13:58:00,36.1,25.1,29.98,WNW,300,8.5,12.7,64,0.00,BKN,,0.00,WeatherDisplay:10.37,2013-03-23 17:58:00,
2013-03-23 14:03:00,35.7,25.1,29.99,West,264,6.7,11.5,65,0.00,BKN,,0.00,WeatherDisplay:10.37,2013-03-23 18:03:00,
2013-03-23 14:08:00,35.9,25.6,29.99,WNW,291,6.0,10.0,66,0.00,BKN,,0.00,WeatherDisplay:10.37,2013-03-23 18:08:00,
2013-03-23 14:13:00,35.5,25.3,29.98,WNW,285,6.3,8.1,66,0.00,BKN,,0.00,WeatherDisplay:10.37,2013-03-23 18:13:00,
2013-03-23 14:18:00,35.3,24.7,29.98,West,271,9.7,13.8,65,0.00,BKN,,0.00,WeatherDisplay:10.37,2013-03-23 18:18:00,
2013-03-23 14:23:00,35.1,24.9,29.98,WSW,256,8.0,12.0,66,0.00,BKN,,0.00,WeatherDisplay:10.37,2013-03-23 18:23:00,
2013-03-23 14:28:00,35.1,25.2,29.98,NW,304,11.7,13.8,67,0.00,BKN,,0.00,WeatherDisplay:10.37,2013-03-23 18:28:00,
2013-03-23 14:33:00,35.2,25.3,29.98,NW,315,8.3,13.8,67,0.00,BKN,,0.00,WeatherDisplay:10.37,2013-03-23 18:33:00,
2013-03-23 14:38:00,35.4,25.2,29.98,West,279,8.3,15.0,66,0.00,BKN,,0.00,WeatherDisplay:10.37,2013-03-23 18:38:00,
2013-03-23 14:43:00,35.4,24.8,29.98,NW,307,10.0,13.8,65,0.00,BKN,,0.00,WeatherDisplay:10.37,2013-03-23 18:43:00,
2013-03-23 14:48:00,35.5,25.3,29.98,NW,309,7.1,12.7,66,0.00,BKN,,0.00,WeatherDisplay:10.37,2013-03-23 18:48:00,
2013-03-23 14:53:00,36.1,25.5,29.98,West,281,10.3,17.3,65,0.00,BKN,,0.00,WeatherDisplay:10.37,2013-03-23 18:53:00,
2013-03-23 14:58:00,36.2,24.8,29.97,NW,304,10.1,13.8,63,0.00,BKN,,0.00,WeatherDisplay:10.37,2013-03-23 18:58:00,
2013-03-23 15:03:00,36.2,24.8,29.97,WNW,297,9.4,12.0,63,0.00,BKN,,0.00,WeatherDisplay:10.37,2013-03-23 19:03:00,
2013-03-23 15:08:00,36.2,25.2,29.97,WNW,300,8.0,11.5,64,0.00,BKN,,0.00,WeatherDisplay:10.37,2013-03-23 19:08:00,
2013-03-23 15:13:00,36.4,24.2,29.97,NW,309,6.9,12.7,61,0.00,BKN,,0.00,WeatherDisplay:10.37,2013-03-23 19:13:00,
2013-03-23 15:18:00,36.5,23.9,29.98,West,274,9.8,15.0,60,0.00,BKN,,0.00,WeatherDisplay:10.37,2013-03-23 19:18:00,
2013-03-23 15:23:00,36.3,24.1,29.98,WNW,300,9.4,15.0,61,0.00,BKN,,0.00,WeatherDisplay:10.37,2013-03-23 19:23:00,
2013-03-23 15:28:00,36.2,24.8,29.98,WNW,293,9.9,13.8,63,0.00,BKN,,0.00,WeatherDisplay:10.37,2013-03-23 19:28:00,
2013-03-23 15:33:00,36.3,23.7,29.98,WNW,293,11.4,15.0,60,0.00,BKN,,0.00,WeatherDisplay:10.37,2013-03-23 19:33:00,
2013-03-23 15:38:00,36.5,24.3,29.98,WNW,285,5.5,11.5,61,0.00,BKN,,0.00,WeatherDisplay:10.37,2013-03-23 19:38:00,
2013-03-23 15:43:00,36.7,24.9,29.98,WSW,248,10.1,12.7,62,0.00,BKN,,0.00,WeatherDisplay:10.37,2013-03-23 19:43:00,
2013-03-23 15:48:00,36.7,24.5,29.98,WNW,293,12.8,16.1,61,0.00,BKN,,0.00,WeatherDisplay:10.37,2013-03-23 19:48:00,
2013-03-23 15:53:00,36.6,24.8,29.98,WNW,295,10.9,13.0,62,0.00,BKN,,0.00,WeatherDisplay:10.37,2013-03-23 19:53:00,
2013-03-23 15:58:00,36.6,24.4,29.98,WNW,301,11.3,16.1,61,0.00,BKN,,0.00,WeatherDisplay:10.37,2013-03-23 19:58:00,
2013-03-23 16:03:00,36.6,24.4,29.98,West,263,7.0,13.8,61,0.00,BKN,,0.00,WeatherDisplay:10.37,2013-03-23 20:03:00,
2013-03-23 16:08:00,36.8,24.6,29.98,WNW,295,12.2,18.4,61,0.00,BKN,,0.00,WeatherDisplay:10.37,2013-03-23 20:08:00,
2013-03-23 16:13:00,36.9,25.1,29.98,WNW,293,10.4,13.8,62,0.00,BKN,,0.00,WeatherDisplay:10.37,2013-03-23 20:13:00,
2013-03-23 16:18:00,36.6,24.4,29.98,WNW,297,7.9,12.7,61,0.00,BKN,,0.00,WeatherDisplay:10.37,2013-03-23 20:18:00,
2013-03-23 16:23:00,36.7,24.5,29.98,NNW,330,8.0,13.8,61,0.00,BKN,,0.00,WeatherDisplay:10.37,2013-03-23 20:23:00,
2013-03-23 16:28:00,37.3,25.1,29.98,WNW,297,12.6,15.0,61,0.00,BKN,,0.00,WeatherDisplay:10.37,2013-03-23 20:28:00,
2013-03-23 16:34:00,37.4,25.2,29.98,WNW,295,7.7,13.0,61,0.00,BKN,,0.00,WeatherDisplay:10.37,2013-03-23 20:34:00,
2013-03-23 16:39:00,37.2,23.8,29.98,NW,307,12.6,18.4,58,0.00,BKN,,0.00,WeatherDisplay:10.37,2013-03-23 20:39:00,
2013-03-23 16:44:00,37.2,24.6,29.98,WNW,300,12.7,13.8,60,0.00,BKN,,0.00,WeatherDisplay:10.37,2013-03-23 20:44:00,
2013-03-23 16:49:00,37.4,25.2,29.98,WNW,295,6.1,8.1,61,0.00,BKN,,0.00,WeatherDisplay:10.37,2013-03-23 20:49:00,
2013-03-23 16:54:00,37.2,24.6,29.98,NW,318,7.4,11.0,60,0.00,BKN,,0.00,WeatherDisplay:10.37,2013-03-23 20:54:00,
2013-03-23 16:59:00,37.1,24.5,29.98,WNW,293,10.2,13.8,60,0.00,BKN,,0.00,WeatherDisplay:10.37,2013-03-23 20:59:00,
2013-03-23 17:04:00,37.5,24.5,29.98,NNW,342,9.0,13.8,59,0.00,BKN,,0.00,WeatherDisplay:10.37,2013-03-23 21:04:00,
2013-03-23 17:09:00,37.7,24.2,29.98,WNW,288,9.4,13.8,58,0.00,BKN,,0.00,WeatherDisplay:10.37,2013-03-23 21:09:00,
2013-03-23 17:14:00,38.1,24.6,29.98,NW,309,7.6,10.0,58,0.00,BKN,,0.00,WeatherDisplay:10.37,2013-03-23 21:14:00,
2013-03-23 17:19:00,38.3,24.4,29.98,SW,214,11.2,13.8,57,0.00,BKN,,0.00,WeatherDisplay:10.37,2013-03-23 21:19:00,
2013-03-23 17:24:00,38.1,24.2,29.98,West,273,12.9,19.6,57,0.00,BKN,,0.00,WeatherDisplay:10.37,2013-03-23 21:24:00,
2013-03-23 17:29:00,37.7,23.8,29.98,WNW,290,12.9,16.1,57,0.00,BKN,,0.00,WeatherDisplay:10.37,2013-03-23 21:29:00,
2013-03-23 17:34:00,37.6,23.7,29.98,WNW,295,9.1,10.4,57,0.00,BKN,,0.00,WeatherDisplay:10.37,2013-03-23 21:34:00,
2013-03-23 17:39:00,37.6,23.7,29.98,West,280,7.5,12.0,57,0.00,BKN,,0.00,WeatherDisplay:10.37,2013-03-23 21:39:00,
2013-03-23 17:44:00,37.4,23.1,29.98,NW,308,8.8,12.7,56,0.00,BKN,,0.00,WeatherDisplay:10.37,2013-03-23 21:44:00,
2013-03-23 17:49:00,37.2,23.8,29.98,NNW,329,5.3,6.9,58,0.00,BKN,,0.00,WeatherDisplay:10.37,2013-03-23 21:49:00,
2013-03-23 17:54:00,37.1,22.8,29.98,WNW,293,8.8,11.5,56,0.00,BKN,,0.00,WeatherDisplay:10.37,2013-03-23 21:54:00,
2013-03-23 17:59:00,36.9,23.1,29.98,West,277,9.3,17.3,57,0.00,BKN,,0.00,WeatherDisplay:10.37,2013-03-23 21:59:00,
2013-03-23 18:04:00,36.9,23.5,29.98,WNW,285,8.9,15.0,58,0.00,BKN,,0.00,WeatherDisplay:10.37,2013-03-23 22:04:00,
2013-03-23 18:09:00,36.9,23.5,29.98,WSW,239,9.3,12.7,58,0.00,BKN,,0.00,WeatherDisplay:10.37,2013-03-23 22:09:00,
2013-03-23 18:14:00,36.9,23.9,29.98,West,281,6.5,9.2,59,0.00,BKN,,0.00,WeatherDisplay:10.37,2013-03-23 22:14:00,
2013-03-23 18:19:00,36.9,23.9,29.98,West,276,7.8,9.2,59,0.00,BKN,,0.00,WeatherDisplay:10.37,2013-03-23 22:19:00,
2013-03-23 18:24:00,36.9,24.3,29.99,WNW,293,3.8,5.0,60,0.00,BKN,,0.00,WeatherDisplay:10.37,2013-03-23 22:24:00,
2013-03-23 18:29:00,36.8,23.4,29.99,WNW,284,7.8,10.4,58,0.00,BKN,,0.00,WeatherDisplay:10.37,2013-03-23 22:29:00,
2013-03-23 18:34:00,36.8,23.8,29.99,WSW,250,5.6,5.8,59,0.00,BKN,,0.00,WeatherDisplay:10.37,2013-03-23 22:34:00,
2013-03-23 18:39:00,37.1,23.7,29.98,West,281,7.8,10.4,58,0.00,BKN,,0.00,WeatherDisplay:10.37,2013-03-23 22:39:00,
2013-03-23 18:44:00,37.1,24.1,29.99,WNW,287,4.5,6.9,59,0.00,BKN,,0.00,WeatherDisplay:10.37,2013-03-23 22:44:00,
2013-03-23 18:49:00,36.9,23.9,29.98,West,279,5.0,9.2,59,0.00,BKN,,0.00,WeatherDisplay:10.37,2013-03-23 22:49:00,
2013-03-23 18:54:00,36.7,23.7,29.99,West,280,4.6,11.5,59,0.00,BKN,,0.00,WeatherDisplay:10.37,2013-03-23 22:54:00,
2013-03-23 18:59:00,36.7,24.1,29.99,West,262,4.4,6.9,60,0.00,BKN,,0.00,WeatherDisplay:10.37,2013-03-23 22:59:00,
2013-03-23 19:04:00,36.5,23.9,29.99,WNW,300,4.9,7.0,60,0.00,BKN,,0.00,WeatherDisplay:10.37,2013-03-23 23:04:00,
2013-03-23 19:09:00,36.5,23.9,29.99,SW,231,3.7,10.4,60,0.00,BKN,,0.00,WeatherDisplay:10.37,2013-03-23 23:09:00,
2013-03-23 19:14:00,36.5,23.9,29.99,WNW,290,5.1,9.2,60,0.00,BKN,,0.00,WeatherDisplay:10.37,2013-03-23 23:14:00,
2013-03-23 19:19:00,36.5,23.9,29.99,WNW,295,3.7,8.1,60,0.00,BKN,,0.00,WeatherDisplay:10.37,2013-03-23 23:19:00,
2013-03-23 19:24:00,36.4,24.2,29.99,WNW,295,5.0,6.9,61,0.00,BKN,,0.00,WeatherDisplay:10.37,2013-03-23 23:24:00,
2013-03-23 19:29:00,36.4,23.8,29.99,West,262,8.6,15.0,60,0.00,BKN,,0.00,WeatherDisplay:10.37,2013-03-23 23:29:00,
2013-03-23 19:34:00,36.4,23.8,29.99,West,277,8.6,10.4,60,0.00,BKN,,0.00,WeatherDisplay:10.37,2013-03-23 23:34:00,
2013-03-23 19:39:00,36.4,24.6,29.99,West,274,2.9,8.1,62,0.00,BKN,,0.00,WeatherDisplay:10.37,2013-03-23 23:39:00,
2013-03-23 19:44:00,36.3,24.5,30.00,NW,314,4.8,6.0,62,0.00,BKN,,0.00,WeatherDisplay:10.37,2013-03-23 23:44:00,
2013-03-23 19:49:00,36.2,24.4,30.00,WNW,290,6.6,11.0,62,0.00,BKN,,0.00,WeatherDisplay:10.37,2013-03-23 23:49:00,
2013-03-23 19:54:00,36.1,24.3,30.00,West,260,5.9,11.5,62,0.00,BKN,,0.00,WeatherDisplay:10.37,2013-03-23 23:54:00,
2013-03-23 19:59:00,36.1,24.7,30.00,WNW,284,6.3,8.1,63,0.00,BKN,,0.00,WeatherDisplay:10.37,2013-03-23 23:59:00,
2013-03-23 20:04:00,36.1,24.7,30.00,West,280,6.0,12.0,63,0.00,BKN,,0.00,WeatherDisplay:10.37,2013-03-24 00:04:00,
2013-03-23 20:09:00,36.0,25.0,30.00,West,271,6.3,9.2,64,0.00,BKN,,0.00,WeatherDisplay:10.37,2013-03-24 00:09:00,
2013-03-23 20:14:00,35.9,25.3,30.01,WNW,293,3.7,6.0,65,0.00,BKN,,0.00,WeatherDisplay:10.37,2013-03-24 00:14:00,
2013-03-23 20:19:00,35.9,25.6,30.01,WNW,283,5.5,6.9,66,0.00,BKN,,0.00,WeatherDisplay:10.37,2013-03-24 00:19:00,
2013-03-23 20:24:00,35.8,26.3,30.01,West,262,3.6,4.6,68,0.00,BKN,,0.00,WeatherDisplay:10.37,2013-03-24 00:24:00,
2013-03-23 20:29:00,35.7,26.2,30.01,NW,304,2.8,8.1,68,0.00,BKN,,0.00,WeatherDisplay:10.37,2013-03-24 00:29:00,
2013-03-23 20:34:00,35.5,26.3,30.01,NW,318,2.7,4.6,69,0.00,BKN,,0.00,WeatherDisplay:10.37,2013-03-24 00:34:00,
2013-03-23 20:39:00,35.4,26.6,30.01,WNW,291,2.1,3.5,70,0.00,BKN,,0.00,WeatherDisplay:10.37,2013-03-24 00:39:00,
2013-03-23 20:44:00,35.4,26.6,30.01,WNW,301,3.8,4.6,70,0.00,BKN,,0.00,WeatherDisplay:10.37,2013-03-24 00:44:00,
2013-03-23 20:49:00,35.2,26.4,30.01,NW,311,2.6,3.5,70,0.00,BKN,,0.00,WeatherDisplay:10.37,2013-03-24 00:49:00,
2013-03-23 20:54:00,35.1,26.6,30.01,NW,309,1.9,2.3,71,0.00,BKN,,0.00,WeatherDisplay:10.37,2013-03-24 00:54:00,
2013-03-23 20:59:00,35.0,26.5,30.01,NW,314,2.9,3.5,71,0.00,BKN,,0.00,WeatherDisplay:10.37,2013-03-24 00:59:00,
2013-03-23 21:04:00,34.9,26.4,30.01,NW,318,2.3,3.5,71,0.00,BKN,,0.00,WeatherDisplay:10.37,2013-03-24 01:04:00,
2013-03-23 21:09:00,34.8,26.7,30.01,NNW,339,3.1,4.6,72,0.00,BKN,,0.00,WeatherDisplay:10.37,2013-03-24 01:09:00,
2013-03-23 21:14:00,34.7,26.3,30.01,NW,325,5.8,8.0,71,0.00,BKN,,0.00,WeatherDisplay:10.37,2013-03-24 01:14:00,
2013-03-23 21:19:00,34.7,26.3,30.01,NNW,341,4.3,5.8,71,0.00,BKN,,0.00,WeatherDisplay:10.37,2013-03-24 01:19:00,
2013-03-23 21:24:00,34.5,26.1,30.01,NW,314,3.9,7.0,71,0.00,BKN,,0.00,WeatherDisplay:10.37,2013-03-24 01:24:00,
2013-03-23 21:29:00,34.3,25.5,30.02,NW,315,4.9,7.0,70,0.00,BKN,,0.00,WeatherDisplay:10.37,2013-03-24 01:29:00,
2013-03-23 21:34:00,34.1,25.0,30.01,NW,325,5.7,7.0,69,0.00,BKN,,0.00,WeatherDisplay:10.37,2013-03-24 01:34:00,
2013-03-23 21:39:00,34.1,24.6,30.02,NNW,329,4.2,4.6,68,0.00,BKN,,0.00,WeatherDisplay:10.37,2013-03-24 01:39:00,
2013-03-23 21:44:00,34.0,24.2,30.01,NW,307,5.8,9.2,67,0.00,BKN,,0.00,WeatherDisplay:10.37,2013-03-24 01:44:00,
2013-03-23 21:49:00,34.0,24.5,30.02,NW,309,3.8,4.6,68,0.00,BKN,,0.00,WeatherDisplay:10.37,2013-03-24 01:49:00,
2013-03-23 21:54:00,34.0,24.2,30.02,WNW,301,4.9,8.1,67,0.00,BKN,,0.00,WeatherDisplay:10.37,2013-03-24 01:54:00,
2013-03-23 21:59:00,33.8,24.0,30.02,NW,307,3.7,4.6,67,0.00,BKN,,0.00,WeatherDisplay:10.37,2013-03-24 01:59:00,
2013-03-23 22:04:00,33.7,23.9,30.02,NW,307,3.4,5.0,67,0.00,BKN,,0.00,WeatherDisplay:10.37,2013-03-24 02:04:00,
2013-03-23 22:09:00,33.6,23.8,30.02,NW,304,2.8,4.6,67,0.00,BKN,,0.00,WeatherDisplay:10.37,2013-03-24 02:09:00,
2013-03-23 22:14:00,33.5,23.7,30.02,West,263,4.2,6.9,67,0.00,BKN,,0.00,WeatherDisplay:10.37,2013-03-24 02:14:00,
2013-03-23 22:19:00,33.4,24.0,30.02,WNW,291,2.8,4.0,68,0.00,BKN,,0.00,WeatherDisplay:10.37,2013-03-24 02:19:00,
2013-03-23 22:24:00,33.4,23.6,30.02,WNW,290,3.4,5.0,67,0.00,BKN,,0.00,WeatherDisplay:10.37,2013-03-24 02:24:00,
2013-03-23 22:30:00,33.3,23.9,30.02,WNW,298,4.3,4.6,68,0.00,BKN,,0.00,WeatherDisplay:10.37,2013-03-24 02:30:00,
2013-03-23 22:35:00,33.1,23.7,30.02,NW,312,3.3,3.5,68,0.00,BKN,,0.00,WeatherDisplay:10.37,2013-03-24 02:35:00,
2013-03-23 22:40:00,33.0,23.6,30.02,NW,314,5.1,6.9,68,0.00,BKN,,0.00,WeatherDisplay:10.37,2013-03-24 02:40:00,
2013-03-23 22:45:00,32.8,23.4,30.02,NW,322,2.8,4.6,68,0.00,BKN,,0.00,WeatherDisplay:10.37,2013-03-24 02:45:00,
2013-03-23 22:50:00,32.6,23.2,30.02,NNW,341,2.5,4.6,68,0.00,BKN,,0.00,WeatherDisplay:10.37,2013-03-24 02:50:00,
2013-03-23 22:55:00,32.3,23.3,30.02,WNW,297,2.0,3.5,69,0.00,BKN,,0.00,WeatherDisplay:10.37,2013-03-24 02:55:00,
2013-03-23 23:00:00,32.1,23.1,30.02,North,350,4.1,5.8,69,0.00,BKN,,0.00,WeatherDisplay:10.37,2013-03-24 03:00:00,
2013-03-23 23:05:00,32.0,23.0,30.02,NW,311,4.4,8.1,69,0.00,BKN,,0.00,WeatherDisplay:10.37,2013-03-24 03:05:00,
2013-03-23 23:10:00,31.9,22.9,30.02,NNW,333,4.3,5.8,69,0.00,BKN,,0.00,WeatherDisplay:10.37,2013-03-24 03:10:00,
2013-03-23 23:15:00,31.8,23.1,30.02,NW,325,4.3,5.8,70,0.00,BKN,,0.00,WeatherDisplay:10.37,2013-03-24 03:15:00,
2013-03-23 23:20:00,31.8,22.8,30.02,WNW,301,5.5,8.1,69,0.00,BKN,,0.00,WeatherDisplay:10.37,2013-03-24 03:20:00,
2013-03-23 23:25:00,31.8,23.1,30.02,NW,311,5.0,6.0,70,0.00,BKN,,0.00,WeatherDisplay:10.37,2013-03-24 03:25:00,
2013-03-23 23:30:00,31.7,23.0,30.02,NNW,328,3.1,4.0,70,0.00,BKN,,0.00,WeatherDisplay:10.37,2013-03-24 03:30:00,
2013-03-23 23:35:00,31.5,22.8,30.02,NW,326,3.3,6.0,70,0.00,BKN,,0.00,WeatherDisplay:10.37,2013-03-24 03:35:00,
2013-03-23 23:40:00,31.6,22.9,30.02,NW,315,6.0,9.2,70,0.00,BKN,,0.00,WeatherDisplay:10.37,2013-03-24 03:40:00,
2013-03-23 23:45:00,31.6,22.9,30.02,NNW,329,4.2,7.0,70,0.00,BKN,,0.00,WeatherDisplay:10.37,2013-03-24 03:45:00,
2013-03-23 23:50:00,31.5,22.8,30.02,WNW,291,3.9,5.8,70,0.00,BKN,,0.00,WeatherDisplay:10.37,2013-03-24 03:50:00,
2013-03-23 23:55:00,31.5,23.2,30.02,NW,304,3.0,3.5,71,0.00,BKN,,0.00,WeatherDisplay:10.37,2013-03-24 03:55:00,